Погода в Анапе

Погода в Анапе : погода сейчас, прогноз погоды и архив. Всё, что Вы хотите узнать о погоде в Анапе!

Поиск расширенной информации на нашем сайте:

Другие новости

Новости СМИ2

Главная страница сайта

Новости сайта

03.07.2017

Напоминаем, что на нашем специализированном сайте Метеоцентр.Азия вы можете получить высокодетализированные автоматические прогнозы погоды по пунктам России, СНГ и мира в авиационном формате (включающие направление и скорость ветра, видимость, явления погоды, количество и форму облачности, нижнюю и верхнюю границу облачности).


Погода в Анапе - сегодня

Время (UTC), дата Ветер
(°,м/с) 
Видим.   Явления Облачность Т
(°С)
Тd
(°С)
f(%) Тe
(°С)
Pmin
(гПа)
dP
(гПа)
Po
(мм)
O2
(г/м3)
Тmin Tmax R s Состояние
почвы
12 20.10.17 200 (Ю) 20000 м    1/0 верхняя 
[Ci fib]
+18.7 +11.6 63 +22  1018.7  -0.7  761  285           
15 20.10.17 220 (ЮЗ) 10 км    4/0 верхняя 
[Ci fib]
+16.9 +11.8 72 +20  1018.9  0.2  761  287    +19.2       
18 20.10.17 080 (В) 10 км    4/0 верхняя 
[Ci sp]
+13 +11.3 89 +17  1019.1  0.2  761  291           
21 20.10.17 060 (СВ) 10 км    ясно 
+11.6 +9.8 89 +12  1018.5  -0.6  761  292           
00 21.10.17 040 (СВ) 10 км    ясно 
+10.4 +8.7 89 +11  1018.1  -0.4  761  294           
03 21.10.17 060 (СВ) 10 км    8/8 300 м 
[St]
+11.9 +8.9 82 +12  1017.7  -0.4  760  292  +9.5        сухая 
06 21.10.17 060 (СВ) 10 км    9/9 600 м 
[Sc]
+14.1 +10.9 81 +17  1017.9  0.2  760  289           
09 21.10.17 330 (СЗ) 10 км    6/4 600 м средняя 
[Sc|Ac As]
+17.7 +10.9 64 +21  1017.4  -0.4  760  286           
12 21.10.17 350 (С) 20000 м    5/3 600 м средняя 
[Sc|Ac As]
+18 +10 59 +20  1016  -1.4  759  285           
15 21.10.17 010 (С) 10 км    6/6 600 м 
[Sc]
+15.7 +9.9 68 +17  1015.6  -0.4  759  287    +18.5       
18 21.10.17 050 (СВ) 10 км    6/6 600 м 
[Sc]
+14 +8.9 71 +15  1015.2  -0.4  758  289           
21 21.10.17 080 (В) 10 км    6/6 600 м 
[Sc]
+14.8 +8.7 67 +16  1014.1  -1.1  758  288           
00 22.10.17 200 (Ю) 6-10{10}  10 км    9/9 600 м 
[Sc]
+16 +12.8 81 +21  1012.5  -1.5  756  285           
03 22.10.17 190 (Ю) 7-11{11}  10 км    5/5 600 м 
[Sc]
+15.2 +11.6 79 +17  1011.9  -0.7  756  286  +13.7         
06 22.10.17 190 (Ю) 10-13{13}  10 км    10/10 600 м кучево-дожд. 
[Cb cap]
+15.5 +11.7 78 +17  1011.5  -0.4  756  286           
09 22.10.17 190 (Ю) 7-11{13}  10 км  гроза, ливневой дождь  10/10 300 м кучево-дожд. 
[Cb cap]
+15.8 +12.5 81 +19  1010.7  -0.8  755  285           
12 22.10.17 330 (СЗ) 1{15}  10 км  гроза, ливневой дождь  10/10 300 м кучево-дожд. 
[Cb cap]
+14.8 +11.1 78 +19  1010.5  -0.2  755  286           
15 22.10.17 050 (СВ) 10 км  {гроза, ливн. осадки}  10/10 600 м кучево-дожд. 
[Cb cap]
+14.6 +11.6 82 +19  1011.9  1.4  756  287    +16.2     
18 22.10.17 040 (СВ) 10 км  {гроза, ливн. осадки}  10/10 600 м кучево-дожд. 
[Cb cap]
+14 +11 82 +17  1012.9  757  288           
21 22.10.17 040 (СВ) 10 км    10/10 600 м кучево-дожд. 
[Cb cap]
+12.5 +10.6 88 +14  1014.9  1.9  758  290           
00 23.10.17 040 (СВ) 4000 м  дымка  ясно 
+10.9 +9.4 90 +10  1015.6  0.7  759  292           
03 23.10.17 030 (СВ) 4000 м  дымка  6/6 600 м 
[Sc]
+8.8 +7.4 91 +7  1016.9  1.3  760  295  +8.8         
06 23.10.17 060 (СВ) 10 км    4/3 600 м верхняя 
[Sc|Ci sp]
+9.2 +6.9 86 +7  1017.3  0.4  760  295  +7.8         
09 23.10.17 070 (В) 6-11{11}  10 км    10/3 600 м верхняя 
[Sc|Cs]
+11.7 +7.5 75 +10  1016.9  -0.4  760  292           
12 23.10.17 070 (В) 6-10{11}  10 км    10/3 600 м верхняя 
[Sc|Cs]
+11.8 +7.8 76 +11  1015.3  -1.6  758  292           
Время (UTC), дата Ветер
(°,м/с) 
Видим.   Явления Облачность Т
(°С)
Тd
(°С)
f(%) Тe
(°С)
Pmin
(гПа)
dP
(гПа)
Po
(мм)
O2
(г/м3)
Тmin Tmax R s Состояние
почвы

Для получения пояснительной информации подведите курсор к названию столбца.

ПОГОДА в Анапе - архив

Всё, что Вы хотите узнать о погоде в Анапе - удобно и подробно!

Выберите нужную дату (начиная с 1 января 2015* года) и нажмите кнопку "Найти".
Будут отображены архивные сводки погоды по пункту Анапа, начиная с указанной даты.


Отображать данные в формате CSV (для использования в таблицах Excel)


Внимание! Наш архив погоды предназначен исключительно для личного некоммерческого использования в познавательных целях. Если Вам необходимы официальные справки о состоянии погоды (для производственных, юридических, коммерческих и т.п. целей), обращайтесь в органы Росгидромета.

*Примечание: данная дата относится к архиву по метеостанциям СССР (Россия, СНГ, Балтия).
Архив по метеостанциям Зарубежной Европы и Азии (кроме Китая) хранится 10 дней, по другим регионам земного шара (Китай, Африка, Америка, Австралия, Океания) - 1 день.

Анапа - район местоположения метеостанции


Название, широта, долгота, высота метеостанции:
Анапа (обсерватория) 44.97°ш. 37.30°д. 23 м над ур. моря [Российская Федерация]

Дополнительная информация

В oтличие oт бoльшинства пoгoдных сайтoв мы публикуем пoдрoбную метеoинфoрмацию в детальнoм прoфессиoнальнoм фoрмате.

Характеристики температуры и влажнoсти вoздуха измеряются на высoте 2 м в тени вдали oт зданий и деревьев.
Скoрoсть ветра измеряется на высoте 10 м (на урoвне рoста челoвека скoрoсть ветра ниже в 1.5-2 раза). Если метеoстанция нахoдится в гoрoде или в лесу, тo скoрoсть ветра занижена на 2-4 м/с пo сравнению с oткрытым местoм. Скoрoсть ветра над акватoриями крупных рек и oзёр, а также на вершинах хoлмoв на 2-5 м/с выше, чем в oбычных услoвиях.
Атмoсфернoе давление в разных тoчках местнoсти мoжет значительнo oтличаться oт давления на метеoстанции, в зависимoсти oт услoвий рельефа (при пoдъёме на 10 м давление пoнижается примернo на 1 мм рт.ст.).